Wind_Speed
15 16 17 17 16 16 16 16 16 16 17 17 18 18 18 18 18 19 20 19 20 20 20 20 20 21 21 21 20 21 21 22 22 23 23 24 24 24 24 23 23 23 23 22 22 22 22 21 21 21 21 21 21 21 22 22 22 23 24 24 25 25 25 25 25 25 26 26 26 27 27 27 27 27 28 28 28 28 28 27 27 27 28 28 28 28
14 14 14 14 14 14 16 16 15 15 16 17 17 17 18 19 19 20 20 20 19 19 19 19 20 20 20 20 20 21 21 22 23 23 24 24 24 24 24 24 23 23 23 23 23 22 22 22 21 21 21 21 21 21 22 22 23 23 24 24 24 25 25 25 25 25 26 26 26 27 27 27 27 27 27 28 28 28 27 27 27 27 28 28 28 28
11 11 12 12 12 13 15 15 14 15 16 16 17 18 19 20 20 20 20 19 19 18 18 18 19 19 20 21 21 21 21 22 22 23 24 24 24 24 24 24 24 24 24 23 23 22 22 21 21 21 21 21 21 21 22 22 23 24 24 24 24 24 24 25 25 25 26 26 26 26 27 27 27 27 27 27 27 27 27 27 27 27 28 28 28 28
10 11 12 12 12 13 14 14 15 15 16 17 18 19 19 20 20 20 19 19 18 18 18 18 19 20 20 21 21 21 21 21 22 23 23 24 24 24 24 24 24 24 24 23 23 22 21 21 21 20 21 21 21 22 22 23 24 24 24 24 24 24 24 24 25 25 26 26 26 26 26 26 26 26 26 27 27 27 27 27 27 28 28 28 28 28
10 11 11 11 12 13 14 14 14 15 16 17 18 18 19 19 19 18 18 18 18 18 18 18 18 19 20 20 21 21 21 21 22 23 23 24 24 25 24 24 24 24 23 22 22 21 21 20 20 20 20 21 21 22 23 24 24 24 24 23 23 23 24 24 24 25 25 26 26 26 26 26 26 26 26 26 27 27 27 27 27 28 28 28 28 28
11 10 11 11 12 13 13 14 14 15 15 16 17 17 17 18 18 18 18 18 18 18 18 18 19 19 19 20 20 21 21 21 22 22 23 23 23 23 23 23 22 22 22 21 21 20 20 20 20 20 21 21 22 23 24 24 24 23 23 23 23 23 24 24 25 25 25 25 25 26 26 26 26 26 26 26 26 27 27 27 27 27 28 28 28 28
11 11 11 12 12 13 14 15 15 15 16 16 17 17 17 17 18 18 18 18 19 19 19 19 19 19 19 19 19 20 20 20 21 21 21 21 21 21 21 21 21 20 20 20 20 20 20 20 20 21 22 23 23 24 24 24 23 23 22 22 23 23 24 24 24 25 25 25 25 25 25 25 25 26 26 26 26 27 27 27 27 27 27 27 28 28
11 11 11 12 13 14 15 15 16 16 16 16 17 17 18 18 18 18 19 19 19 19 19 19 19 18 18 18 18 19 19 20 20 20 20 20 20 20 20 20 20 20 20 20 20 20 20 21 22 22 23 23 24 24 24 23 23 22 22 22 23 23 24 24 24 25 25 25 25 25 25 25 25 26 26 26 27 27 27 27 27 27 27 27 28 28
11 12 12 12 13 14 15 16 16 16 15 16 17 17 18 19 19 19 19 19 19 18 18 18 18 18 18 18 18 19 20 20 20 20 20 20 20 20 20 20 20 20 20 20 20 20 21 22 23 23 23 24 24 24 24 23 22 22 22 22 23 23 24 24 25 25 25 25 25 25 25 25 26 26 26 27 27 27 27 27 27 27 27 27 27 28
11 12 13 13 14 14 15 16 16 16 16 16 17 18 18 19 19 19 19 18 18 17 17 17 18 19 20 19 19 19 20 20 20 20 20 20 21 21 21 21 20 20 20 20 20 21 21 22 22 23 23 23 23 23 23 23 22 21 21 22 23 23 24 24 25 25 25 25 25 25 25 25 26 26 26 27 27 27 27 27 27 27 27 27 27 27
11 12 12 13 14 14 15 16 17 16 16 17 17 18 17 17 17 18 18 18 18 18 18 18 18 19 21 21 20 19 19 19 20 20 20 20 20 20 20 20 20 19 19 19 19 19 20 21 21 22 22 23 23 23 23 22 21 21 21 22 22 23 24 24 25 25 25 25 25 25 26 26 26 26 27 27 27 27 27 27 27 27 27 27 27 27
11 11 12 13 14 14 15 16 16 16 15 15 16 16 16 16 16 17 18 19 20 20 19 19 19 20 20 21 20 20 19 19 19 19 19 19 19 19 18 18 17 16 16 16 17 17 19 20 21 21 22 23 23 22 22 20 20 20 20 21 23 24 24 25 25 25 25 25 25 25 26 26 27 27 27 27 27 27 27 27 27 27 27 27 27 27
10 11 12 13 14 14 14 14 14 14 14 14 15 15 17 18 18 18 19 20 20 19 20 20 21 21 20 20 20 20 20 19 19 19 19 19 18 17 16 15 14 14 14 15 16 17 18 19 20 21 22 22 22 21 20 19 19 19 20 22 23 24 25 25 25 25 24 25 25 25 26 26 27 27 27 27 27 27 27 27 27 27 27 27 27 27
11 12 12 13 13 13 13 14 14 14 15 15 16 18 19 20 19 19 19 19 19 19 20 21 22 22 21 20 20 20 19 19 19 19 19 18 17 16 15 14 14 14 14 15 17 18 19 20 21 21 21 21 20 20 19 18 19 20 21 22 24 25 25 25 25 24 24 25 25 26 26 26 26 27 27 27 27 27 27 27 27 27 27 27 27 27
11 12 12 12 13 14 15 15 15 16 16 17 18 19 20 20 19 17 17 18 20 21 21 22 22 21 20 19 19 19 18 18 18 18 18 17 15 14 13 13 13 14 15 17 18 20 20 21 21 21 21 20 20 19 18 18 19 21 22 23 24 25 25 25 24 25 25 25 25 26 26 26 26 27 27 27 27 27 27 27 27 27 27 27 27 27
12 12 12 13 14 15 15 15 15 15 17 18 19 19 19 18 17 17 17 19 21 22 21 19 18 18 18 17 16 15 15 16 16 15 16 15 14 12 11 12 14 15 17 18 20 21 21 21 21 21 20 20 19 18 19 20 21 22 23 24 24 25 25 25 25 25 25 25 25 26 26 26 26 27 27 27 27 27 27 27 27 27 27 27 27 27
12 12 13 14 14 15 15 14 14 16 18 19 19 18 17 17 17 18 19 20 21 20 17 14 12 11 12 14 13 11 11 13 14 15 14 14 14 13 12 13 15 17 19 20 20 21 21 20 20 20 19 19 19 19 20 21 22 23 23 24 24 24 24 24 24 25 25 25 25 26 26 26 26 26 27 27 27 27 27 27 27 27 27 27 27 27
12 12 13 14 15 15 15 15 16 18 18 18 18 18 18 18 18 19 20 20 19 17 14 12 10 8 8 10 11 11 13 14 15 14 14 15 16 16 16 16 18 19 20 20 20 20 20 20 19 19 19 19 19 20 21 22 22 23 23 24 24 24 24 24 24 25 25 25 25 26 26 26 26 26 27 27 27 27 27 27 27 27 27 27 27 27
14 14 15 15 15 15 15 16 17 17 17 18 18 19 20 21 20 20 19 18 17 15 12 11 11 10 10 11 13 15 18 19 18 16 15 17 18 18 17 18 19 19 20 20 20 19 19 18 18 18 18 18 19 20 21 22 23 23 23 24 24 24 24 24 24 25 25 25 25 25 26 26 26 26 26 26 26 27 27 27 27 27 27 27 27 26
17 17 17 16 16 16 17 17 16 17 18 19 21 21 22 22 21 19 18 16 14 13 12 12 12 12 12 13 16 20 22 21 19 18 18 18 19 18 18 17 17 18 19 19 18 17 17 17 18 18 18 18 19 20 21 22 23 23 23 23 24 24 24 24 24 25 25 25 25 25 26 26 26 26 26 26 26 26 26 26 27 27 27 27 27 26
18 18 17 16 16 17 17 17 17 17 19 21 22 23 22 21 18 16 14 13 12 11 12 12 13 14 15 18 20 21 22 21 20 19 18 17 17 16 16 16 16 17 17 17 16 16 16 17 18 18 18 18 19 20 21 22 23 23 23 23 23 23 23 24 24 25 25 25 25 25 25 26 26 26 26 26 26 26 26 26 26 26 27 27 27 26
18 18 18 18 18 18 18 18 19 19 20 21 22 21 20 18 16 14 13 13 13 13 14 14 15 17 19 20 21 22 21 20 19 18 16 15 15 16 15 15 16 16 16 16 16 16 17 17 18 18 18 18 19 21 22 22 22 22 22 22 22 23 23 24 25 25 25 25 25 25 25 25 25 26 26 26 26 26 26 26 26 26 26 26 26 26
18 18 19 19 18 18 19 19 20 20 20 20 21 22 22 20 19 18 17 17 17 17 18 18 19 19 19 19 20 20 20 18 17 15 13 10 12 14 15 14 14 15 15 16 16 17 17 17 18 18 18 19 20 20 21 22 22 21 21 22 22 23 24 25 25 25 25 25 25 25 25 25 25 26 26 26 26 26 26 26 26 26 26 26 27 27
17 17 18 18 18 18 19 19 20 20 21 22 23 24 24 23 22 21 21 20 20 20 21 20 20 18 18 17 18 18 16 14 12 10 9 8 10 12 13 13 13 14 15 16 16 17 17 18 18 18 18 19 19 20 21 21 21 21 21 22 23 24 25 25 25 25 25 25 24 25 25 25 25 25 26 26 25 26 25 25 26 26 26 27 27 27
16 16 17 17 17 18 19 20 21 22 23 23 23 24 24 23 22 22 21 21 20 20 19 19 18 17 17 17 17 16 14 11 8 7 6 7 9 11 12 12 13 14 15 16 16 17 17 18 18 19 19 19 19 19 20 20 20 21 22 23 24 25 25 25 24 24 24 24 24 24 25 25 25 25 25 25 25 25 25 25 25 26 26 27 28 28
14 15 16 17 19 20 21 22 23 23 23 21 21 22 22 22 22 21 21 20 20 19 19 18 17 17 17 17 17 16 13 10 7 5 5 6 8 10 12 12 12 14 15 16 17 17 18 18 19 19 19 19 19 19 19 20 21 22 23 24 24 24 24 24 24 23 23 23 24 24 24 25 25 25 25 25 25 25 25 25 25 26 27 28 28 28
16 18 19 21 22 22 23 23 23 22 22 21 21 21 20 20 19 19 18 18 18 18 17 15 14 14 15 15 15 14 12 8 5 4 4 5 8 10 11 12 13 14 15 16 17 17 17 18 18 18 18 18 18 19 19 20 21 22 23 24 24 24 23 23 23 22 23 23 24 24 25 25 25 25 25 25 24 24 25 25 26 26 27 27 27 26
20 21 21 22 21 21 21 20 20 20 19 19 19 18 17 16 16 15 15 16 16 16 15 14 12 11 11 12 13 14 11 7 4 4 5 6 8 9 11 13 13 14 15 16 17 17 17 17 17 17 17 18 18 19 20 20 21 22 23 23 23 23 22 22 22 22 22 23 24 24 24 25 25 24 24 24 24 24 25 25 26 26 26 25 25 24
20 20 19 19 18 18 18 18 17 17 17 17 16 15 14 13 12 12 13 14 14 14 14 14 13 12 12 13 14 13 9 5 4 5 6 7 8 10 12 13 14 14 15 16 17 17 16 16 16 16 16 17 19 20 21 21 21 22 22 22 22 22 21 21 21 22 23 23 24 24 24 24 24 24 24 24 24 25 25 25 25 25 24 24 24 24
18 17 17 17 16 16 16 16 16 15 15 14 13 12 11 10 10 10 11 12 12 13 13 13 13 13 13 12 12 10 6 4 5 7 8 8 8 10 12 13 14 15 15 14 12 12 13 16 16 15 16 17 19 20 21 21 21 21 22 22 22 21 21 21 21 22 23 23 23 23 24 24 24 24 24 24 24 24 25 25 25 24 23 23 23 24
16 16 16 16 15 15 14 14 13 13 12 12 11 11 10 9 8 8 9 11 12 12 12 12 13 12 12 9 7 4 3 5 7 9 10 8 8 10 12 13 14 15 14 13 8 5 8 13 16 17 17 18 20 20 21 21 21 21 21 21 21 21 21 21 21 22 22 23 23 23 23 23 23 23 24 24 24 24 24 24 24 24 24 23 23 23
15 15 15 14 14 13 13 12 12 11 11 11 11 10 10 10 9 10 11 12 12 12 12 12 12 12 11 9 6 4 4 6 9 10 11 9 9 11 12 13 14 15 15 14 11 8 5 8 14 19 20 20 20 21 21 20 20 20 20 20 21 21 21 21 21 21 22 22 22 22 22 22 23 23 23 23 24 24 24 24 24 24 24 24 24 24
14 14 13 13 13 12 11 11 11 11 11 11 11 10 10 10 11 11 12 12 12 12 12 12 11 11 10 9 8 7 7 8 9 10 12 11 11 11 13 13 14 15 15 15 14 13 11 12 16 20 21 21 21 20 20 19 19 19 19 20 20 21 21 21 21 21 21 21 22 22 22 22 22 22 23 23 23 23 24 24 25 24 24 23 23 24
13 13 13 12 12 11 11 11 11 12 12 11 11 11 11 11 12 12 12 13 13 13 12 11 10 9 8 8 7 8 8 8 10 11 12 12 11 12 13 13 14 14 15 14 14 14 15 16 17 19 20 21 21 20 19 18 18 18 19 19 20 20 21 21 21 21 21 21 22 22 21 21 22 22 22 23 23 23 24 25 25 24 23 22 22 23
12 12 12 12 11 11 11 12 12 12 12 11 11 11 12 12 12 13 13 14 14 14 12 10 9 8 8 7 7 8 9 10 11 11 12 11 11 12 13 13 13 14 14 14 14 14 14 16 18 18 19 20 21 21 19 18 18 19 19 19 19 20 20 20 21 21 21 21 21 21 21 21 22 22 22 22 23 24 25 25 25 24 22 21 21 22
12 12 11 12 12 12 12 12 12 12 12 12 12 12 12 13 13 13 14 15 15 13 10 8 7 7 7 8 8 9 10 11 12 12 12 12 11 11 12 12 13 14 14 15 15 15 15 16 18 19 19 18 18 19 19 19 20 20 20 20 19 19 20 20 20 20 20 21 21 21 21 21 22 22 22 23 24 25 25 25 24 23 23 22 22 21
12 12 12 12 12 12 12 12 12 12 12 12 12 13 13 13 13 14 15 15 13 11 8 6 6 6 7 9 10 11 12 13 13 13 14 13 13 12 12 13 14 14 14 14 15 16 16 16 17 18 18 16 16 16 19 21 21 21 20 20 20 20 20 20 19 19 20 20 20 20 21 21 21 22 22 23 24 25 25 25 24 24 23 23 22 22
12 12 12 12 12 12 12 12 12 12 12 13 13 14 14 14 14 15 15 14 11 8 6 6 6 8 9 11 12 13 13 14 13 13 13 14 14 13 12 13 14 14 14 15 15 16 16 15 14 13 14 16 17 18 19 21 21 21 21 21 21 20 20 19 19 19 19 19 20 20 21 21 21 22 23 23 24 25 25 25 25 25 24 24 23 22
12 12 12 12 12 12 12 12 12 12 13 13 13 13 13 13 13 13 13 11 8 6 5 7 8 10 11 13 14 14 14 14 13 13 13 14 15 15 14 14 15 15 15 15 15 16 16 15 14 13 13 15 18 20 20 20 20 21 22 22 22 21 19 19 19 19 19 19 20 20 21 21 21 22 22 23 23 24 24 25 25 25 25 24 24 23
12 12 12 12 12 12 12 12 13 13 13 13 12 12 13 12 12 12 11 9 6 5 6 8 10 11 13 14 15 15 15 13 13 13 14 15 16 16 16 15 15 15 15 15 15 15 15 15 15 16 16 16 17 19 20 20 20 20 21 21 20 19 20 20 19 19 19 19 20 20 21 22 22 22 22 23 23 23 23 24 24 24 24 24 23 24
13 12 12 13 13 13 13 13 13 12 12 12 12 12 12 12 12 11 11 9 7 6 7 9 10 12 13 14 14 13 12 12 12 13 14 16 16 17 16 16 15 14 15 15 15 15 15 15 16 16 16 17 17 18 19 19 20 20 19 19 19 20 21 20 19 19 19 20 20 21 21 22 22 23 23 23 24 24 23 23 23 23 23 22 22 22
13 13 13 13 14 14 15 15 13 11 10 10 11 11 12 12 11 11 10 9 8 6 7 9 11 12 13 13 12 10 9 9 10 12 13 15 16 16 16 15 15 15 15 16 17 17 16 16 16 16 16 16 17 17 18 19 20 19 18 18 19 21 21 20 19 19 20 20 21 21 21 21 22 23 24 24 24 24 23 23 22 22 21 21 22 22
13 14 14 14 14 15 15 15 13 11 10 9 9 10 11 11 10 9 9 9 9 8 9 10 11 12 13 13 12 12 11 10 11 12 13 13 14 15 14 14 15 16 17 17 18 18 18 16 16 15 16 16 16 17 18 19 20 20 19 18 19 19 17 19 20 21 21 21 21 21 21 22 23 24 25 25 24 24 24 23 22 22 21 21 21 21
13 14 14 14 15 15 14 14 12 11 9 9 9 9 10 9 8 7 8 9 9 9 10 11 12 12 12 12 13 13 13 13 13 13 13 13 13 13 14 15 16 17 18 18 18 18 18 17 16 16 15 15 16 17 18 19 19 19 19 18 18 17 16 18 20 22 22 21 21 22 22 23 24 25 25 24 24 24 23 23 23 23 23 22 22 21
13 13 14 14 14 14 14 13 12 10 9 8 8 9 9 8 7 7 7 8 9 9 10 11 12 12 12 12 13 13 14 14 14 14 14 14 14 14 15 16 17 18 18 18 18 18 18 18 18 18 17 16 16 17 17 18 18 19 18 18 18 18 18 19 20 20 20 21 22 23 24 25 25 24 23 23 23 23 23 23 23 23 23 23 22 21
13 14 14 14 14 14 14 14 13 11 10 9 9 9 8 7 7 7 7 8 9 10 11 11 11 12 12 13 13 14 14 15 15 16 16 16 16 16 16 17 17 18 18 18 18 18 18 18 19 19 18 18 17 17 17 17 17 17 18 19 19 19 19 19 19 19 19 20 21 23 25 26 24 22 21 21 23 24 24 24 23 23 23 23 22 21
14 14 15 15 15 14 14 13 13 12 11 10 9 8 8 7 7 7 8 8 9 10 11 11 12 12 12 13 13 13 14 15 16 17 17 17 17 17 17 18 18 18 18 18 18 19 19 19 19 19 19 17 16 16 16 16 16 16 17 19 19 20 19 19 19 20 20 20 22 24 26 26 24 22 21 22 22 23 24 24 24 24 23 22 22 21
14 14 15 15 15 14 14 13 12 11 10 10 9 8 8 8 7 7 8 9 9 10 10 11 12 12 12 12 12 13 13 14 15 16 17 18 18 18 19 19 19 19 19 18 18 18 18 18 18 18 18 17 16 15 15 15 15 16 17 18 19 19 19 20 20 20 21 22 23 25 25 24 22 21 21 21 21 21 22 24 24 24 23 22 21 20
14 15 15 15 15 14 13 13 12 11 10 9 8 7 7 7 7 7 8 8 9 9 10 11 12 12 12 12 12 13 14 14 15 16 17 17 18 18 19 20 20 20 20 19 18 18 17 16 15 14 13 14 14 14 14 15 16 16 17 17 17 18 19 19 20 21 22 23 25 26 25 23 22 21 20 19 18 19 21 23 23 23 22 22 21 20
14 14 14 14 14 14 14 13 12 11 10 9 8 7 6 6 7 8 8 7 8 9 10 11 12 12 12 12 12 13 14 15 16 16 17 17 17 18 19 20 21 21 20 20 19 18 17 16 15 12 9 8 9 11 12 14 16 17 17 17 17 17 18 19 20 21 22 24 25 26 25 24 23 21 19 18 17 18 19 21 21 22 22 22 22 21
15 15 14 14 14 14 14 14 13 12 10 9 7 6 6 6 6 7 7 8 8 9 11 11 11 11 11 12 12 13 14 15 15 16 16 16 17 17 18 19 19 20 19 19 18 18 16 15 13 12 10 7 6 7 10 14 16 17 17 17 17 17 18 19 20 22 23 24 24 24 24 23 22 20 19 18 17 17 18 20 21 22 23 24 23 21
Wind_Direction
270 281 292 297 296 290 285 282 279 277 278 282 284 286 288 290 291 292 293 291 289 288 287 287 287 287 287 287 288 288 288 288 288 288 287 287 288 289 290 291 292 293 293 292 290 289 287 287 287 288 290 291 293 295 297 299 301 303 305 306 306 305 305 304 304 304 304 304 304 304 304 304 304 304 304 303 303 302 302 302 303 302 301 300 300 300
279 289 295 293 287 281 280 280 278 276 277 280 283 286 288 289 289 289 290 289 288 287 287 287 287 287 287 288 288 289 289 289 289 289 288 288 288 289 290 291 291 292 292 291 290 288 287 287 287 288 289 291 293 295 297 299 302 304 305 305 305 305 304 303 303 303 304 304 304 304 304 304 304 304 304 303 303 302 302 301 301 300 300 300 300 300
289 293 291 287 281 278 279 280 279 278 279 280 282 285 287 287 287 287 287 287 287 287 286 286 287 287 287 288 288 288 287 288 288 289 289 289 289 289 290 290 291 292 292 291 290 288 287 287 287 288 289 291 293 295 298 300 302 303 304 304 304 304 304 303 303 304 304 304 304 304 304 304 304 304 303 303 302 301 301 301 300 300 300 301 301 302
287 287 286 285 282 279 278 281 282 281 281 282 283 284 284 283 283 282 282 284 285 285 285 285 286 286 286 286 286 285 285 286 287 288 289 290 290 290 290 291 291 292 292 291 290 288 287 287 287 288 290 292 294 296 299 300 302 303 304 304 304 304 304 304 304 304 304 304 304 304 304 304 304 303 303 302 301 301 301 301 301 301 301 302 302 303
283 282 284 285 283 281 281 282 283 284 284 283 283 282 280 278 278 278 279 281 282 284 285 286 286 286 286 286 285 285 284 285 286 286 287 288 289 290 290 291 291 291 292 291 290 288 288 287 287 288 290 292 294 296 298 300 302 302 303 303 303 304 304 304 304 304 304 304 304 304 304 304 303 302 302 302 301 301 301 302 302 302 302 303 303 303
281 281 282 282 282 282 285 286 287 287 287 285 283 281 279 278 278 279 280 282 283 285 287 288 288 288 288 288 287 287 287 286 286 287 287 288 289 290 290 291 292 292 292 291 290 289 288 287 288 289 290 292 294 296 298 300 301 302 302 303 303 304 304 305 305 305 305 305 304 304 304 303 303 302 302 301 302 302 302 303 303 303 303 304 304 303
282 282 282 281 281 283 286 288 288 288 287 286 285 284 283 283 283 282 283 284 285 287 289 290 290 290 290 291 292 292 293 292 292 291 290 290 290 290 291 292 292 293 292 292 291 290 288 288 288 289 290 292 294 297 299 300 301 301 302 303 303 304 304 305 305 305 305 305 304 304 303 303 303 302 302 302 302 302 303 303 303 303 304 304 304 303
283 283 283 283 285 288 289 288 287 286 284 284 285 287 288 288 287 286 286 286 286 287 288 290 291 292 293 295 297 298 298 298 298 297 295 293 291 291 291 291 291 291 291 290 289 289 288 288 288 289 291 293 295 297 299 300 300 301 302 302 303 304 304 305 305 305 305 305 304 304 303 303 303 303 302 302 302 303 303 303 304 304 305 304 303 302
279 282 283 284 288 291 291 289 287 284 283 283 285 288 291 291 291 289 288 288 287 288 289 292 294 296 297 299 300 300 300 299 297 296 294 292 291 290 289 289 289 288 288 287 287 287 288 289 290 291 292 294 295 297 298 299 300 301 301 302 303 304 304 305 305 305 305 304 304 304 303 303 302 302 302 303 303 303 303 304 304 304 304 303 302 302
274 279 284 286 286 287 287 288 287 286 285 285 285 286 287 288 289 289 288 288 290 292 294 297 300 302 302 301 300 300 298 296 294 292 290 289 288 288 287 286 285 285 284 284 285 287 288 289 291 292 293 294 296 297 298 299 299 300 301 302 303 304 304 305 305 305 304 304 304 303 303 302 302 302 302 303 303 304 304 304 304 304 303 302 301 301
274 278 282 285 286 284 282 283 285 287 288 287 285 283 281 281 284 288 291 294 297 299 300 300 301 301 301 301 299 297 295 293 292 290 288 286 285 285 284 283 282 281 280 281 283 285 287 289 290 292 294 295 296 297 298 298 298 299 300 301 303 304 305 305 305 304 304 303 303 303 302 302 302 303 303 304 304 304 304 304 303 303 303 302 302 301
275 279 281 283 285 284 282 283 285 288 289 288 287 286 287 287 290 294 297 299 301 302 301 299 298 296 296 296 296 294 292 289 288 287 286 285 284 284 283 281 279 278 279 280 283 286 288 290 291 292 294 295 296 296 297 297 297 298 300 301 303 304 305 305 305 304 304 303 303 303 303 303 303 303 304 304 304 304 303 303 303 303 303 303 302 301
273 278 280 281 281 282 283 286 288 291 292 292 294 296 299 300 300 299 297 297 297 299 300 298 296 294 292 291 290 289 287 285 283 283 282 282 282 282 281 279 278 278 280 283 286 288 290 291 292 293 294 294 295 295 296 296 297 298 300 301 303 304 305 305 304 304 303 303 303 303 303 303 303 304 304 304 304 303 303 304 303 303 303 302 302 301
275 277 278 278 280 283 287 290 294 296 297 298 299 299 299 299 298 298 296 296 297 298 298 296 295 293 292 290 287 285 283 281 281 280 279 279 280 281 280 279 279 280 283 286 288 289 290 291 292 292 292 293 293 294 295 296 297 298 300 301 303 304 304 304 304 303 303 303 303 303 303 304 303 303 303 303 303 303 303 303 303 303 302 302 301 301
275 278 281 283 287 289 291 293 294 295 296 297 297 296 296 296 298 299 301 302 302 301 298 295 292 290 289 288 287 285 283 282 281 281 281 281 282 284 286 286 285 285 286 288 289 290 290 290 290 290 291 291 292 293 295 296 298 299 300 301 303 303 303 303 303 303 303 303 304 304 304 304 303 303 303 303 303 303 303 303 303 303 302 302 301 301
279 283 286 288 287 286 286 286 288 290 293 294 295 295 296 300 303 307 307 305 303 299 295 292 290 289 289 289 289 289 291 291 290 289 289 289 289 292 293 293 291 288 288 289 289 289 289 289 288 288 288 289 291 293 295 297 298 299 300 301 302 303 303 303 303 303 303 304 304 304 304 303 303 303 303 303 303 303 303 303 303 302 302 301 301 301
282 284 283 281 281 282 285 286 288 290 292 294 296 297 301 305 309 309 307 303 299 295 289 285 285 289 293 296 298 302 307 307 304 300 297 294 294 294 294 292 288 287 287 287 287 287 287 286 286 286 286 288 291 294 296 297 298 299 300 301 302 302 302 302 303 303 304 304 304 304 304 304 304 304 303 303 303 303 303 303 302 302 301 301 301 301
281 279 279 280 283 288 292 293 293 294 295 298 302 306 308 307 307 304 301 297 294 291 288 284 283 287 294 299 305 313 317 318 315 308 301 296 295 295 295 290 287 286 287 286 285 285 284 284 284 285 287 289 292 295 296 298 299 300 301 301 302 303 303 303 304 304 304 305 305 304 304 304 304 304 304 304 304 304 304 303 303 302 302 302 301 301
285 286 288 291 293 295 295 294 295 298 303 308 312 312 309 304 300 295 292 290 289 289 290 293 294 294 296 297 304 311 315 317 315 309 302 297 296 297 296 293 289 287 286 286 285 285 284 284 285 287 289 292 294 296 298 299 300 300 301 302 302 303 303 304 304 305 305 305 305 305 304 304 304 304 304 304 304 304 304 303 303 302 302 302 301 301
288 289 290 293 296 297 296 295 299 305 311 314 313 309 303 298 293 289 287 288 290 294 298 301 301 301 303 303 305 307 309 310 307 301 295 292 293 296 299 297 293 289 288 287 286 287 287 288 290 292 293 295 297 298 299 300 300 301 301 302 302 303 304 304 305 305 305 305 305 305 305 305 305 305 305 305 305 304 304 303 303 303 302 302 302 301
286 287 288 291 295 297 298 300 304 309 311 311 309 304 298 294 292 290 290 295 300 303 304 301 299 299 300 300 300 300 302 301 297 292 290 288 290 294 300 301 298 294 291 290 291 292 293 294 294 295 297 298 299 299 300 300 301 301 302 303 303 303 304 305 305 305 306 306 305 305 305 305 305 305 305 305 305 304 304 304 303 303 302 302 302 301
283 286 289 291 294 296 298 301 304 306 306 307 306 303 302 301 301 302 305 307 307 304 300 295 293 294 295 294 295 297 298 293 287 284 284 284 287 293 302 306 304 300 297 296 297 297 297 297 297 298 298 299 300 301 301 301 302 302 303 303 304 305 305 306 306 306 306 306 306 306 306 306 306 306 306 306 305 305 305 304 304 304 303 303 302 301
285 288 292 294 295 296 298 300 302 304 306 307 307 308 309 310 310 309 308 308 305 300 298 295 293 293 293 293 295 297 297 291 283 277 275 277 286 295 305 309 308 304 300 299 300 300 300 299 299 300 300 301 302 302 302 303 303 304 305 306 306 306 307 307 307 306 306 306 306 306 306 306 307 307 307 306 306 306 305 305 305 305 304 304 303 302
288 290 293 294 295 297 299 301 304 307 309 310 310 310 311 311 310 308 307 305 302 300 300 299 298 297 297 299 301 304 304 297 284 272 267 275 288 298 307 312 310 304 300 300 301 302 302 301 301 302 303 303 303 303 303 304 305 306 307 307 308 308 308 307 307 307 306 306 306 306 307 307 308 308 307 307 307 307 307 306 306 305 305 304 304 303
291 293 295 296 299 301 303 304 306 308 309 309 308 308 309 309 309 309 308 306 303 301 301 300 301 302 304 307 309 311 316 309 295 280 275 285 294 302 309 312 309 305 302 302 303 304 303 303 303 304 304 304 304 304 305 306 307 307 308 309 309 309 309 308 308 307 307 307 307 307 308 308 309 309 309 309 308 308 308 308 307 306 306 305 305 304
300 302 304 306 307 307 307 306 305 305 305 305 305 306 308 309 311 310 309 308 307 307 307 306 305 305 308 310 311 313 319 314 301 286 287 296 303 307 311 313 311 307 304 304 305 306 305 304 304 305 305 305 305 306 306 307 308 309 309 310 310 310 310 309 309 308 308 308 308 309 309 310 310 310 309 309 309 309 309 308 308 308 307 307 306 305
311 311 311 311 310 309 307 306 304 304 304 304 305 307 309 312 314 313 311 311 314 315 314 312 309 308 309 309 310 314 320 318 314 310 313 311 308 309 313 316 314 311 308 306 306 306 305 304 304 305 306 306 306 307 307 308 309 310 310 311 311 311 310 310 309 309 309 310 310 310 311 311 311 311 310 310 310 310 310 309 309 309 309 309 308 307
313 312 311 310 309 307 306 305 305 305 305 306 308 310 314 317 318 315 314 316 320 320 316 313 311 310 310 309 310 314 321 329 346 357 345 326 313 309 314 317 317 314 311 308 307 306 305 304 304 305 306 307 307 308 308 309 310 311 312 312 312 311 311 311 311 311 311 311 312 312 312 312 311 311 311 311 311 311 311 311 311 312 312 312 310 309
312 312 310 309 308 307 306 306 306 307 309 310 313 316 319 320 318 316 316 321 324 322 316 312 309 308 307 308 310 313 320 339 3 360 347 330 315 311 316 318 317 315 313 312 310 309 306 305 306 307 307 308 309 310 310 311 312 312 313 313 312 312 312 312 312 312 312 313 313 313 313 313 312 312 312 312 312 313 313 314 315 315 315 314 312 311
313 312 311 310 309 309 309 309 310 312 314 317 320 323 325 322 319 318 320 325 326 322 314 309 306 306 307 310 311 312 319 344 353 347 342 330 317 314 319 318 316 315 316 315 314 311 309 309 309 309 310 310 311 311 312 313 314 314 314 314 313 313 313 313 314 314 314 314 314 314 314 314 314 314 314 314 314 315 316 317 318 318 317 316 314 312
314 314 313 313 313 313 313 314 315 318 321 324 328 331 332 328 325 324 325 327 325 319 312 307 306 308 312 316 315 312 321 337 338 338 339 331 320 316 319 316 314 314 316 317 317 313 311 311 312 313 313 313 312 312 312 313 314 315 315 315 315 314 314 315 315 315 315 315 315 315 315 315 315 316 316 316 317 317 318 319 320 320 319 317 315 313
315 314 314 314 315 316 317 319 322 326 329 331 334 337 337 334 330 328 328 327 324 318 311 307 307 310 314 314 310 305 312 322 326 332 340 335 324 317 317 313 312 313 315 316 314 310 308 310 312 313 314 313 312 312 313 314 315 316 316 316 315 315 315 316 317 316 316 316 316 316 316 317 317 318 318 319 319 319 320 321 321 321 320 318 316 314
315 315 315 316 318 320 322 326 330 332 334 334 334 334 335 330 327 325 325 325 323 317 309 305 306 309 311 310 308 306 309 318 327 335 342 338 327 317 315 312 311 312 314 314 312 308 304 304 308 311 312 311 311 311 313 314 316 317 317 317 316 315 316 317 318 317 317 317 317 317 318 319 319 320 320 320 321 321 321 321 321 321 320 319 318 316
317 318 319 320 323 325 328 332 334 335 334 334 332 330 328 325 323 321 322 322 321 317 308 300 299 303 310 313 313 312 314 322 331 336 338 335 325 315 313 311 311 313 315 315 314 311 306 304 306 308 310 310 310 311 312 315 316 318 318 317 316 315 316 318 318 318 317 317 318 318 319 321 322 322 322 322 322 321 321 321 321 321 322 321 319 316
319 321 323 325 328 330 332 334 335 335 334 332 330 327 325 324 322 321 320 320 320 317 309 299 292 293 300 308 312 312 313 317 323 327 328 326 320 314 312 310 311 314 315 314 314 312 309 307 306 307 308 309 310 311 313 315 317 318 318 317 316 316 316 317 318 318 318 319 319 320 321 323 323 323 323 322 322 321 321 321 321 323 323 323 321 318
321 323 326 329 331 332 334 335 335 335 333 331 328 327 326 325 323 322 320 320 320 316 308 297 290 290 296 299 300 300 301 304 309 314 315 315 314 313 310 308 310 313 314 313 313 312 310 308 308 308 308 308 309 311 314 317 319 319 318 318 318 318 317 318 318 319 320 320 321 322 323 324 325 324 323 322 321 321 322 323 324 326 326 326 325 322
324 326 329 330 332 333 334 335 335 334 332 329 327 327 328 327 325 323 321 320 318 314 306 300 299 302 304 304 301 298 298 302 305 308 310 313 314 313 308 307 309 311 312 311 312 312 311 310 309 309 309 308 309 311 315 318 320 320 319 319 319 319 318 319 320 321 321 322 322 323 324 325 325 324 323 322 323 324 326 327 329 329 330 330 329 327
329 329 329 330 332 333 334 334 333 331 329 326 326 328 330 329 326 324 322 322 319 316 313 316 317 317 315 312 308 306 304 305 307 309 314 319 322 319 312 309 310 311 311 310 310 310 310 309 309 310 309 309 309 310 313 316 318 318 318 318 318 318 319 321 323 324 324 323 324 324 325 325 325 324 324 324 325 326 327 329 331 333 333 333 334 334
330 328 328 329 331 332 332 330 328 326 324 323 326 330 332 331 327 325 324 324 324 326 331 332 330 325 322 317 314 310 307 306 307 310 316 322 326 325 320 315 313 312 312 311 309 309 308 307 306 306 308 309 310 311 312 314 315 316 317 318 319 319 321 323 325 325 325 326 326 326 325 326 325 325 324 325 326 326 326 327 329 332 333 334 334 336
329 327 326 328 329 329 328 325 321 320 320 323 329 333 335 332 328 325 326 328 333 341 345 341 335 329 324 320 314 309 305 303 305 310 316 321 325 326 325 321 316 313 313 312 311 309 308 306 304 303 304 305 307 309 311 312 313 315 317 318 319 319 321 323 325 325 326 327 326 325 325 325 326 325 325 324 324 324 323 323 325 329 332 332 331 330
330 328 327 328 327 326 323 320 317 316 321 329 335 337 335 332 328 326 329 331 333 337 343 339 333 328 325 320 315 309 304 302 305 311 317 320 323 324 325 324 320 316 313 313 311 310 308 305 304 303 304 305 305 306 307 308 310 313 315 315 314 314 316 320 323 325 327 327 326 325 325 325 325 325 325 324 323 323 324 324 324 327 331 331 330 328
333 331 328 327 325 323 320 318 316 318 328 337 341 339 335 333 332 333 334 333 333 335 338 333 328 326 325 327 326 324 319 317 317 319 320 321 321 322 323 323 321 318 315 313 312 310 307 305 303 303 303 304 305 305 305 306 308 310 312 311 312 314 317 320 323 326 326 325 325 324 325 325 325 325 324 323 323 325 328 329 328 328 328 330 332 333
333 330 327 325 323 321 318 316 317 324 336 342 341 336 335 337 342 344 345 343 343 343 339 333 329 326 326 328 331 333 333 332 330 328 325 323 321 321 321 321 320 318 317 315 312 310 308 305 302 301 301 302 303 302 302 304 307 309 310 312 316 319 321 321 323 324 325 324 324 325 325 325 325 323 323 323 324 327 330 332 332 332 332 332 333 335
330 328 326 325 323 320 316 314 319 329 340 341 337 335 337 343 347 347 347 343 342 340 336 333 330 329 329 329 330 331 331 330 330 330 329 327 325 324 323 322 321 320 319 316 312 310 308 306 303 301 300 300 299 298 299 301 304 307 310 315 318 319 318 317 319 322 323 324 324 325 326 326 325 324 324 324 326 328 330 332 333 335 336 336 334 333
328 327 327 326 324 320 316 316 324 335 342 341 336 334 338 342 344 342 340 336 335 335 334 333 332 331 331 331 331 331 331 331 332 332 331 331 330 328 327 326 325 323 320 316 312 308 306 304 302 301 300 298 296 294 295 298 302 307 311 316 319 318 316 316 318 320 322 323 323 325 326 326 326 325 324 324 326 328 330 331 332 333 334 335 333 331
331 329 327 326 324 321 319 323 331 339 342 341 337 334 334 335 338 340 336 334 333 333 333 334 334 333 332 331 332 333 334 333 334 334 333 333 332 331 330 329 327 325 322 318 314 309 304 300 297 297 297 296 294 292 292 296 301 307 312 317 319 319 318 319 320 321 322 322 322 324 326 328 328 326 323 323 324 326 329 331 331 331 332 332 331 330
333 332 330 328 327 325 325 330 336 339 340 339 337 333 329 331 336 338 338 336 334 333 334 335 336 335 333 333 335 336 336 335 334 334 334 333 333 333 333 331 330 328 325 321 317 312 307 301 297 293 291 290 289 290 292 297 303 309 313 317 319 320 320 319 320 322 323 322 323 324 327 329 328 326 323 323 323 325 327 330 331 331 331 330 330 331
335 332 331 330 329 328 330 333 336 336 334 332 331 329 325 329 336 341 341 336 334 334 335 337 336 335 334 335 336 337 337 336 334 334 334 334 334 334 334 334 333 331 329 326 322 318 314 309 303 295 287 280 279 283 291 299 305 310 314 317 319 319 319 319 320 323 324 324 324 326 328 328 326 323 322 322 322 322 324 326 329 331 331 330 330 333
336 333 332 331 331 330 331 333 333 331 327 324 323 323 322 329 335 339 337 332 330 333 336 337 336 335 334 335 336 338 338 337 336 334 334 334 334 335 335 336 336 335 333 332 331 329 326 324 318 308 293 278 272 276 288 299 307 312 315 317 318 319 318 319 321 323 324 325 326 328 329 328 326 324 322 319 318 319 321 323 326 329 330 330 331 335
337 335 334 334 334 334 333 332 330 328 324 320 319 320 323 329 334 335 333 329 329 333 337 337 336 335 335 336 337 338 339 338 337 335 334 334 335 336 337 338 339 338 337 338 338 338 338 338 338 335 323 297 283 284 295 305 312 316 318 319 319 320 319 319 320 322 324 325 326 328 330 330 330 329 326 322 319 318 320 323 325 328 330 331 333 339
340 338 338 339 339 339 337 334 332 330 327 323 322 325 331 332 333 334 335 334 335 337 338 336 336 336 337 337 338 339 340 340 338 336 334 335 336 338 339 340 341 341 341 341 341 342 342 343 344 346 347 344 331 321 319 319 321 322 321 321 322 322 321 320 320 322 323 324 325 327 328 329 330 330 328 325 322 322 323 324 325 326 329 331 336 342
Height
810 809 808 808 808 808 807 806 806 806 805 804 804 803 802 802 801 800 800 799 798 797 796 795 794 793 792 791 791 790 789 789 788 786 785 785 784 783 782 781 781 780 779 778 778 777 776 776 775 775 774 773 772 771 771 770 769 768 767 766 765 764 763 761 760 760 759 758 757 755 755 753 752 751 750 750 748 747 745 745 743 742 741 740 739 738
809 808 808 808 808 807 806 806 806 805 804 803 803 802 801 801 800 799 798 798 797 796 795 794 793 792 791 790 790 789 788 787 786 785 784 783 782 782 781 780 779 779 778 777 776 775 775 774 774 773 772 772 771 770 769 768 767 766 765 764 763 762 761 760 759 758 757 756 755 754 753 752 751 750 749 748 746 745 744 743 742 740 739 738 737 736
808 808 807 807 807 807 806 805 805 805 804 803 802 801 800 800 799 798 797 796 795 795 794 793 792 791 790 789 788 787 786 785 785 784 783 782 781 780 779 779 778 777 776 776 775 774 774 773 772 772 771 770 769 769 768 767 766 765 764 762 761 760 759 758 757 756 755 754 753 752 751 750 749 748 747 746 745 744 742 741 740 739 737 736 735 734
807 807 807 807 806 806 805 805 804 803 803 802 801 800 799 798 797 796 795 795 794 793 792 791 790 789 788 787 786 785 785 784 783 782 781 780 779 779 778 777 776 776 775 774 774 773 772 771 771 770 770 769 768 767 766 765 764 763 762 761 760 759 758 756 755 755 754 753 751 750 750 749 747 746 745 744 743 742 741 740 738 737 736 735 733 732
806 806 806 806 805 805 804 804 803 802 801 800 800 799 798 797 796 795 794 794 793 792 791 790 789 788 787 785 785 784 783 782 781 780 780 779 778 777 776 775 775 774 774 773 772 771 771 770 770 769 768 767 766 765 764 763 762 761 760 759 758 757 756 755 754 753 752 751 750 749 748 747 746 745 744 743 741 740 739 738 737 735 734 733 732 730
806 806 805 805 805 804 803 802 802 801 800 799 798 797 796 795 795 794 793 792 791 790 789 788 787 786 785 784 783 782 781 780 780 779 778 777 776 775 775 774 774 773 772 771 771 770 770 769 768 767 766 765 765 764 763 762 760 760 759 757 756 755 754 753 752 751 750 749 748 747 746 745 744 743 742 741 740 739 738 736 735 734 733 731 730 729
805 805 805 805 804 803 802 801 801 800 799 798 797 796 795 795 794 793 791 791 790 789 788 787 786 785 784 783 782 781 780 780 779 777 777 776 775 774 773 773 772 771 771 770 770 769 768 767 766 766 765 764 763 762 761 760 759 758 757 756 755 754 753 752 751 750 749 748 747 746 745 744 743 742 740 740 738 737 736 735 734 732 731 730 729 728
804 804 804 804 803 802 801 800 800 799 798 797 796 795 794 793 792 791 790 789 788 787 786 785 784 784 783 782 781 780 779 778 777 776 775 775 774 773 772 771 771 770 770 769 768 767 767 766 765 764 763 762 761 760 759 758 757 756 755 754 753 752 751 750 749 748 747 746 745 744 743 742 741 740 739 738 737 735 734 733 732 731 730 729 727 726
804 804 803 803 802 801 800 799 798 798 797 796 795 794 793 791 790 790 789 788 787 786 785 784 783 782 781 781 780 779 778 777 776 775 774 773 772 771 771 770 769 769 768 767 767 766 765 764 763 762 761 760 760 759 758 757 756 755 754 753 752 751 750 749 748 747 746 745 744 743 742 741 740 739 737 736 735 734 733 732 730 730 729 727 726 725
803 803 802 802 801 801 800 798 797 796 796 795 794 793 792 790 789 788 787 786 785 785 784 783 782 781 780 779 779 778 777 776 775 774 773 772 771 770 769 769 768 767 766 765 765 764 763 762 762 761 760 759 758 757 756 755 755 754 753 752 750 750 749 747 746 745 744 743 742 741 740 739 738 737 736 735 733 732 731 730 729 728 727 725 724 723
802 802 801 800 800 799 799 797 796 795 795 794 793 792 791 790 789 787 785 784 783 783 782 782 781 780 779 778 777 777 776 775 773 772 771 770 769 768 768 767 766 765 765 764 764 763 762 761 760 760 759 758 757 756 755 754 753 752 751 750 749 748 747 746 745 744 743 742 741 740 739 738 736 735 734 733 732 731 730 729 727 726 725 724 723 721
801 801 800 800 799 798 797 796 795 794 793 793 791 790 789 788 788 786 784 783 782 781 781 780 780 780 779 777 776 775 774 773 772 770 769 768 767 767 766 765 765 764 764 763 762 762 761 760 759 758 757 756 755 754 754 753 752 751 750 749 748 747 746 745 744 742 741 740 739 738 737 736 735 734 733 731 730 729 728 727 726 725 723 722 721 720
800 800 799 798 797 796 795 795 794 793 792 791 790 789 787 787 786 785 784 782 781 781 780 779 778 778 777 776 775 774 773 771 770 769 768 767 766 765 765 764 763 763 762 762 761 760 760 759 758 757 756 755 754 753 752 751 751 750 749 748 747 745 745 743 742 741 740 739 738 736 735 734 733 732 731 730 729 727 726 725 724 723 722 720 719 718
799 799 798 797 796 795 794 794 793 792 791 790 789 788 787 786 785 784 783 781 781 780 780 778 777 776 775 775 774 773 771 770 769 767 766 765 765 764 763 763 762 762 761 760 760 759 759 758 756 755 755 754 753 752 751 750 750 749 748 747 745 744 743 742 741 740 738 737 736 735 734 733 732 730 729 728 727 726 725 723 722 721 720 719 717 716
798 797 796 795 795 794 794 793 792 791 790 790 789 787 786 785 784 783 782 781 780 779 779 777 776 775 774 773 772 771 770 769 768 766 765 764 764 764 763 762 761 761 760 760 759 758 757 756 755 754 753 752 751 751 750 749 748 747 746 745 744 743 742 740 739 738 737 736 735 734 732 731 730 729 728 726 725 724 723 722 720 719 718 717 715 715
797 796 796 795 794 794 793 792 791 790 789 788 787 786 785 784 783 782 782 780 779 778 777 776 775 773 772 771 771 770 770 768 767 766 765 764 763 763 763 762 761 760 759 759 758 756 755 755 754 753 752 751 750 750 749 748 747 746 745 744 743 741 740 739 738 737 735 735 733 732 731 730 729 727 726 725 723 722 721 720 719 717 716 715 714 713
796 796 795 794 793 792 792 791 790 790 788 787 786 785 784 783 782 781 781 780 779 777 776 775 774 772 770 769 770 770 769 768 767 766 765 764 763 762 762 761 760 759 758 757 756 755 754 753 752 751 750 750 749 748 747 747 746 745 744 742 741 740 739 738 736 735 734 733 732 730 729 728 727 725 724 723 722 720 719 718 717 715 714 713 712 711
795 795 794 793 792 791 790 790 789 788 787 786 785 784 783 783 782 781 780 779 778 777 775 774 774 772 771 769 769 769 769 768 767 766 765 763 762 762 762 760 759 757 756 755 754 753 752 751 750 750 749 749 748 747 746 745 744 743 742 741 740 739 737 736 735 734 733 731 730 729 728 726 725 724 723 721 720 719 717 716 715 714 712 711 710 709
794 794 793 792 791 790 790 789 788 787 786 785 785 784 782 782 781 780 779 777 777 776 775 774 773 772 771 770 769 769 768 768 767 765 764 763 761 761 761 760 758 756 755 754 752 752 751 750 749 749 748 747 747 746 745 744 743 742 741 740 738 737 736 735 734 732 731 730 729 727 726 725 724 722 721 720 718 717 715 714 713 711 710 709 708 707
793 793 792 791 790 790 789 788 788 787 786 785 785 784 782 781 780 778 777 776 775 774 774 773 772 771 770 770 768 768 768 767 766 765 763 761 760 759 759 758 757 755 753 752 751 751 750 749 749 748 747 746 746 745 744 743 741 740 739 738 737 736 735 733 732 731 730 728 727 726 725 723 722 720 719 718 716 715 714 713 711 710 709 707 706 705
792 792 791 791 790 789 788 787 787 787 786 785 785 783 782 780 778 777 776 775 774 773 773 772 771 770 770 768 767 766 766 765 765 763 761 760 759 758 758 757 756 754 753 751 751 750 750 749 748 747 746 745 745 744 743 741 740 739 738 737 735 734 733 732 731 730 728 727 725 724 723 722 720 719 718 716 715 714 712 711 710 708 707 706 705 703
792 791 790 790 790 789 788 787 786 786 786 785 784 782 780 779 778 776 775 775 774 773 772 771 770 769 768 767 765 765 764 764 763 762 760 759 757 757 757 756 755 754 752 751 750 750 749 748 747 746 745 745 744 742 741 740 739 738 736 735 734 733 732 730 729 728 727 725 724 723 721 720 719 717 716 715 713 712 710 709 708 706 705 704 703 701
791 790 790 790 789 788 788 787 786 785 785 784 783 782 780 779 778 776 775 774 773 772 771 770 768 767 766 765 764 763 763 762 761 760 760 758 756 756 756 756 755 753 752 751 750 749 748 747 746 745 744 743 742 741 740 739 738 736 735 734 733 732 730 729 728 726 725 724 723 721 720 719 717 716 714 713 712 710 709 708 706 705 704 702 701 700
790 790 789 789 788 787 787 786 785 784 783 783 782 781 780 779 778 776 775 774 773 771 770 768 767 766 765 765 764 763 762 761 760 759 759 758 756 756 755 755 755 753 752 751 750 749 748 746 745 744 743 742 741 740 739 738 736 735 734 733 732 730 729 728 726 725 724 722 721 720 719 717 716 714 713 711 710 709 707 706 705 703 702 700 699 698
789 789 788 787 787 786 786 785 784 783 783 782 781 780 779 778 777 775 774 773 772 770 769 767 766 765 764 764 763 762 761 760 760 759 759 758 757 756 755 755 754 753 751 750 749 748 747 745 744 743 742 741 740 739 738 737 735 734 733 732 730 729 728 726 725 724 722 721 720 718 717 715 714 713 711 710 709 707 706 705 703 702 700 699 697 696
788 788 787 786 786 785 785 784 784 783 782 781 780 780 778 777 775 775 773 772 771 770 768 767 765 764 764 763 763 762 761 760 760 759 759 759 757 756 755 755 754 753 751 750 749 748 746 745 744 742 741 740 739 738 737 735 734 733 732 730 729 728 726 725 724 722 721 720 718 717 716 714 713 711 710 709 707 706 705 703 702 700 699 697 695 694
787 787 786 785 785 784 784 783 782 782 781 780 780 779 777 776 775 774 773 772 771 770 769 767 765 764 764 763 763 762 761 760 759 759 759 759 758 757 755 755 754 753 751 749 748 747 746 744 743 741 740 739 738 737 736 735 733 732 730 729 728 726 725 724 722 721 720 719 717 716 714 713 711 710 709 707 706 705 704 702 700 699 697 696 694 692
786 786 785 785 784 783 783 782 781 780 780 779 779 778 777 776 775 774 773 772 771 770 769 768 766 765 764 763 763 762 761 760 760 760 760 759 758 757 755 755 754 753 751 749 747 746 745 744 742 741 740 739 737 736 735 733 732 730 729 728 726 725 724 722 721 720 719 717 716 715 713 712 710 709 708 706 705 704 702 701 699 698 696 694 692 690
786 785 785 784 783 782 782 781 780 780 779 778 778 777 776 775 775 774 773 772 772 771 770 769 768 766 765 764 763 762 761 760 760 760 760 759 758 757 756 755 754 753 751 749 746 745 744 743 742 740 739 738 736 735 733 732 731 729 728 726 725 724 723 721 720 719 718 716 715 713 712 710 709 708 706 705 704 702 701 700 698 696 695 693 691 690
785 785 784 783 782 782 781 780 779 779 778 778 777 776 775 775 775 774 773 773 772 772 770 769 768 766 765 764 762 762 761 761 760 760 760 759 758 757 756 755 754 753 751 749 746 744 742 741 740 740 739 737 736 734 733 731 730 728 727 725 724 723 721 720 719 718 716 715 714 712 711 709 708 706 705 704 702 701 700 698 697 695 694 692 690 688
785 784 783 782 781 781 780 779 779 778 778 777 776 776 775 775 774 774 773 773 772 772 771 769 768 767 765 765 763 762 761 761 761 760 760 759 758 757 756 755 754 753 752 750 748 745 742 740 739 738 738 736 735 733 732 731 729 728 726 725 723 722 720 720 718 717 715 714 712 711 710 708 707 705 704 703 701 700 699 697 696 695 693 691 689 687
784 783 782 781 780 780 779 779 778 778 777 776 776 775 775 774 774 773 773 772 772 771 770 769 768 767 766 765 764 763 762 762 761 760 760 759 758 757 756 755 754 752 751 751 750 748 745 741 738 737 736 735 734 733 731 730 729 727 726 724 722 721 720 719 717 716 714 713 711 710 709 707 706 705 703 702 700 699 698 696 695 694 692 690 688 686
783 783 782 781 780 780 779 778 778 777 777 776 776 775 775 774 774 773 772 772 771 771 770 769 768 767 766 765 765 764 763 762 761 761 760 760 759 758 756 755 754 752 751 750 749 748 746 743 740 738 736 735 733 732 730 729 728 727 725 724 722 720 719 718 717 715 714 712 710 709 708 706 705 704 702 701 699 698 696 695 694 693 691 690 688 685
783 782 781 781 780 779 779 778 778 777 776 776 775 775 775 774 773 773 772 771 771 770 769 769 768 767 766 765 765 764 763 762 762 761 760 760 759 758 756 755 754 752 751 750 749 747 746 744 742 739 736 734 732 731 730 729 728 726 725 724 722 720 719 718 716 715 713 711 710 708 707 705 704 703 701 700 698 697 695 694 693 691 690 689 687 685
783 782 781 780 780 779 779 778 777 777 776 776 775 775 774 774 773 772 771 770 770 769 769 768 768 767 766 766 765 764 764 763 762 761 761 760 759 758 756 755 754 753 751 750 749 747 745 743 742 740 737 734 731 730 729 729 727 726 725 724 722 721 719 718 716 715 713 711 710 708 706 705 704 702 700 699 697 696 694 693 691 690 689 688 686 685
782 782 781 780 780 779 778 778 777 777 776 776 775 775 774 773 772 772 771 770 769 768 768 767 767 767 766 766 765 765 764 763 762 761 760 760 759 758 757 755 754 753 752 750 749 747 745 743 741 740 738 735 732 730 728 727 727 725 724 723 722 720 719 717 716 715 713 711 709 708 706 705 703 702 700 698 696 695 693 691 690 689 687 686 685 684
782 782 781 780 780 779 778 778 777 777 776 775 775 774 773 773 772 771 770 769 768 768 767 767 767 766 766 766 765 764 763 762 761 760 760 759 758 758 757 755 754 753 752 751 749 748 746 744 741 739 738 736 734 731 729 727 726 725 723 722 721 720 718 717 716 715 713 711 710 708 706 705 703 701 699 697 695 694 692 690 689 687 686 685 683 682
782 782 781 780 780 779 779 778 777 777 776 775 774 774 773 772 772 771 770 769 768 768 767 767 767 766 766 765 764 763 762 761 760 760 759 758 758 757 756 755 754 753 752 751 750 748 747 745 742 740 738 736 734 732 730 729 727 725 723 722 720 720 718 717 715 714 713 711 710 708 706 705 703 701 699 697 695 693 691 689 687 686 685 683 682 681
783 782 781 780 780 779 779 778 777 777 776 775 774 774 773 772 771 770 769 769 768 768 768 767 767 766 765 764 763 762 761 761 760 759 759 758 757 756 756 755 754 753 752 751 750 749 747 745 744 741 739 736 734 732 731 730 728 726 724 721 720 718 717 716 715 714 713 711 710 708 706 705 703 701 699 697 695 693 691 689 687 685 684 682 680 679
783 782 781 781 780 780 779 778 777 776 775 775 774 774 773 772 771 770 769 769 768 768 767 767 766 765 765 763 762 761 761 760 760 759 758 757 757 756 755 755 753 752 751 750 749 748 747 745 744 742 740 738 736 733 731 730 728 727 725 722 720 718 717 716 715 714 713 711 710 708 706 704 702 701 699 697 695 693 691 690 687 685 684 682 681 679
783 782 782 781 780 780 779 778 777 776 775 775 774 773 773 772 771 770 769 769 768 768 767 767 766 765 765 764 763 761 760 760 759 758 758 757 756 755 755 754 753 752 751 750 748 747 746 745 744 742 740 739 736 734 732 730 729 727 726 724 721 719 717 716 715 714 713 711 710 708 706 704 702 700 699 697 695 693 692 690 688 686 684 683 682 680
784 783 782 781 780 780 779 778 777 776 775 775 774 774 773 772 771 770 770 769 769 768 768 767 766 765 765 764 763 762 761 760 759 758 758 757 756 755 754 753 752 752 750 749 748 747 746 745 743 742 740 739 737 735 732 730 728 727 726 725 722 720 717 716 715 714 713 711 709 708 706 704 702 700 698 696 694 693 691 690 688 686 685 683 682 680
785 784 782 781 780 780 778 777 776 775 775 775 774 774 773 772 771 770 770 770 769 769 768 767 767 765 765 764 763 762 762 761 760 759 758 757 756 755 754 754 753 752 750 749 747 746 745 744 743 741 740 739 737 735 733 730 728 727 726 725 723 720 718 716 714 713 712 711 709 707 706 704 702 700 698 696 694 692 690 689 688 686 685 683 682 681
785 784 783 782 780 779 778 777 776 775 775 775 774 774 773 772 772 771 770 770 770 769 768 767 767 766 765 764 763 762 761 761 760 760 759 758 757 756 755 754 753 751 750 749 747 745 744 742 741 740 739 738 737 735 733 730 728 727 725 724 723 722 720 718 715 713 712 710 709 707 706 704 702 700 698 696 694 692 690 689 687 685 684 683 682 680
785 784 783 782 780 779 778 777 776 775 775 775 774 774 773 772 772 771 771 770 770 769 769 768 767 766 765 764 763 762 761 760 760 759 758 757 757 756 755 754 752 751 750 748 747 745 744 742 740 739 738 737 736 735 733 731 729 727 725 724 723 722 720 718 716 715 712 710 709 707 705 704 702 700 697 695 693 692 690 689 687 685 684 683 681 680
785 784 783 782 780 779 778 777 776 775 775 775 774 774 773 772 772 772 771 771 770 770 769 768 767 766 765 764 763 762 761 760 759 758 757 757 756 755 754 753 752 750 749 747 746 745 743 742 740 738 737 736 735 733 732 731 729 727 725 724 722 721 719 717 716 715 713 711 709 707 705 703 702 700 698 695 693 691 690 688 687 685 684 682 681 680
785 784 783 782 780 780 778 777 776 776 775 775 774 774 773 773 772 772 772 771 770 770 769 768 767 766 765 764 763 762 761 760 759 758 757 756 755 754 753 752 751 750 748 747 745 744 742 740 739 738 736 735 734 732 731 730 729 728 726 724 722 721 719 717 715 714 713 711 709 707 705 703 701 700 698 696 694 691 690 688 686 685 684 682 681 680
786 785 783 782 781 780 779 778 777 776 775 775 774 774 773 773 773 772 772 771 770 770 769 768 767 766 765 765 764 763 762 761 760 759 757 756 755 754 753 751 750 749 747 746 744 743 741 739 738 737 735 735 733 732 730 730 729 728 726 725 723 721 719 717 715 714 712 711 709 707 706 704 702 700 698 696 694 691 690 688 686 685 684 682 681 680
786 785 784 782 781 780 779 778 777 776 775 775 774 774 774 773 773 772 772 771 771 770 769 768 767 767 766 765 764 763 763 762 760 759 758 757 755 754 752 751 750 748 746 745 743 741 740 738 736 735 734 734 733 732 730 730 729 728 726 725 723 721 720 717 715 714 712 710 709 707 706 704 703 701 699 697 695 692 690 688 686 685 683 682 681 680
786 785 784 783 781 780 779 778 777 776 775 775 775 774 774 773 773 772 772 771 771 770 770 769 768 767 766 765 765 764 763 762 761 760 758 757 756 754 753 751 750 748 745 744 742 740 739 737 735 735 734 733 733 732 731 730 729 727 726 725 723 722 720 718 715 714 712 710 708 706 705 704 702 701 700 698 695 693 690 688 686 685 683 682 680 680
786 785 784 783 782 781 780 778 777 776 775 775 775 774 774 774 773 773 772 772 771 770 770 769 768 767 767 766 765 764 763 762 761 760 759 757 756 755 754 752 751 749 747 745 743 741 739 737 735 734 734 734 734 733 732 731 729 727 725 724 723 722 720 718 716 714 712 710 709 707 705 704 702 701 700 698 696 694 691 689 686 684 683 681 680 680